| time (UTC) | temp F | wind direction | speed MPH | gust MPH | rain 1hr in | rain 24hr in | rain mn in | humidity % | barometer mb |
| 20260510181540 | 74 | 321 | 0.0 | 0.0 | 0.00 | 0.01 | 0.01 | 57 | 1016.0 |
| 20260510180027 | 75 | 283 | 0.0 | 0.0 | 0.00 | 0.01 | 0.01 | 54 | 1016.0 |
| 20260510174522 | 76 | 334 | 0.0 | 0.0 | 0.00 | 0.01 | 0.01 | 51 | 1016.0 |
| 20260510173017 | 77 | 338 | 0.0 | 0.0 | 0.00 | 0.01 | 0.01 | 50 | 1015.7 |
| 20260510171514 | 77 | 331 | 0.0 | 0.0 | 0.00 | 0.01 | 0.01 | 48 | 1015.8 |
| 20260510170010 | 78 | 305 | 0.0 | 0.0 | 0.00 | 0.01 | 0.01 | 52 | 1015.8 |
| 20260510164514 | 76 | 319 | 0.0 | 0.0 | 0.00 | 0.01 | 0.01 | 55 | 1015.7 |
| 20260510163101 | 76 | 345 | 0.0 | 0.0 | 0.00 | 0.01 | 0.01 | 54 | 1015.8 |
| 20260510161604 | 75 | 308 | 0.0 | 0.0 | 0.00 | 0.01 | 0.01 | 56 | 1015.7 |
| 20260510160052 | 73 | 242 | 0.0 | 0.0 | 0.00 | 0.01 | 0.01 | 60 | 1015.7 |
| 20260510154553 | 73 | 227 | 0.0 | 0.0 | 0.00 | 0.01 | 0.01 | 62 | 1015.7 |
| 20260510153042 | 71 | 284 | 0.0 | 0.0 | 0.00 | 0.01 | 0.01 | 65 | 1015.7 |
| 20260510151542 | 71 | 282 | 0.0 | 0.0 | 0.00 | 0.01 | 0.01 | 65 | 1015.9 |
| 20260510150042 | 70 | 220 | 0.0 | 0.0 | 0.00 | 0.01 | 0.01 | 65 | 1015.9 |
| 20260510144534 | 70 | 198 | 0.0 | 0.0 | 0.00 | 0.02 | 0.01 | 65 | 1016.0 |
| 20260510143025 | 71 | 250 | 0.0 | 0.0 | 0.00 | 0.02 | 0.01 | 65 | 1015.8 |
| 20260510141521 | 71 | 178 | 0.0 | 0.0 | 0.00 | 0.02 | 0.01 | 65 | 1015.8 |
| 20260510140016 | 69 | 180 | 0.0 | 0.0 | 0.00 | 0.02 | 0.01 | 64 | 1015.8 |
| 20260510134512 | 68 | 300 | 0.0 | 0.0 | 0.00 | 0.02 | 0.01 | 59 | 1016.0 |
| 20260510133007 | 66 | 155 | 0.0 | 0.0 | 0.00 | 0.02 | 0.01 | 24 | 1015.4 |
| 20260510131503 | 63 | 159 | 0.0 | 0.0 | 0.00 | 0.02 | 0.01 | 1 | 1015.7 |
| 20260510130059 | 61 | 167 | 0.0 | 0.0 | 0.00 | 0.02 | 0.01 | 1 | 1015.8 |
| 20260510124603 | 58 | 343 | 0.0 | 0.0 | 0.00 | 0.02 | 0.01 | 1 | 1015.8 |
| 20260510123051 | 55 | 292 | 0.0 | 0.0 | 0.00 | 0.02 | 0.01 | 1 | 1015.9 |
| 20260510121545 | 53 | 292 | 0.0 | 0.0 | 0.00 | 0.02 | 0.01 | 1 | 1015.8 |
| 20260510120041 | 50 | 292 | 0.0 | 0.0 | 0.00 | 0.02 | 0.01 | 1 | 1015.7 |
| 20260510114542 | 48 | 292 | 0.0 | 0.0 | 0.00 | 0.02 | 0.01 | 1 | 1015.5 |
| 20260510113032 | 47 | 292 | 0.0 | 0.0 | 0.00 | 0.02 | 0.01 | 1 | 1015.2 |
| 20260510111528 | 46 | 292 | 0.0 | 0.0 | 0.00 | 0.02 | 0.01 | 1 | 1014.9 |
| 20260510110028 | 46 | 292 | 0.0 | 0.0 | 0.00 | 0.02 | 0.01 | 1 | 1014.6 |
| 20260510104518 | 46 | 292 | 0.0 | 0.0 | 0.00 | 0.02 | 0.01 | 1 | 1014.5 |
| 20260510103014 | 46 | 292 | 0.0 | 0.0 | 0.00 | 0.02 | 0.01 | 1 | 1014.5 |
| 20260510101510 | 46 | 292 | 0.0 | 0.0 | 0.01 | 0.02 | 0.01 | 1 | 1014.3 |
| 20260510100006 | 46 | 292 | 0.0 | 0.0 | 0.01 | 0.02 | 0.01 | 1 | 1014.2 |
| 20260510094505 | 46 | 292 | 0.0 | 0.0 | 0.01 | 0.02 | 0.01 | 1 | 1013.9 |
| 20260510093119 | 46 | 292 | 0.0 | 0.0 | 0.01 | 0.02 | 0.01 | 1 | 1013.9 |
| 20260510091553 | 46 | 292 | 0.0 | 0.0 | 0.00 | 0.01 | 0.00 | 1 | 1013.9 |
| 20260510090049 | 47 | 292 | 0.0 | 0.0 | 0.00 | 0.01 | 0.00 | 1 | 1013.8 |
| 20260510084544 | 47 | 292 | 0.0 | 0.0 | 0.00 | 0.01 | 0.00 | 1 | 1013.6 |
| 20260510083052 | 47 | 292 | 0.0 | 0.0 | 0.00 | 0.01 | 0.00 | 1 | 1013.3 |
| 20260510081540 | 47 | 292 | 0.0 | 0.0 | 0.00 | 0.01 | 0.00 | 1 | 1013.1 |
| 20260510080031 | 47 | 292 | 0.0 | 0.0 | 0.00 | 0.01 | 0.00 | 1 | 1012.9 |
| 20260510074527 | 47 | 292 | 0.0 | 0.0 | 0.00 | 0.01 | 0.00 | 1 | 1012.9 |
| 20260510073023 | 48 | 292 | 0.0 | 0.0 | 0.00 | 0.01 | 0.00 | 1 | 1012.9 |
| 20260510071522 | 48 | 292 | 0.0 | 0.0 | 0.00 | 0.01 | 0.00 | 1 | 1012.8 |
| 20260510070014 | 48 | 292 | 0.0 | 0.0 | 0.00 | 0.01 | 0.00 | 1 | 1012.9 |
| 20260510064509 | 48 | 292 | 0.0 | 0.0 | 0.00 | 0.01 | 0.00 | 1 | 1012.9 |
| 20260510063007 | 48 | 292 | 0.0 | 0.0 | 0.00 | 0.01 | 0.00 | 1 | 1012.8 |
| 20260510061505 | 49 | 292 | 0.0 | 0.0 | 0.00 | 0.01 | 0.00 | 1 | 1012.8 |
| 20260510060056 | 49 | 292 | 0.0 | 0.0 | 0.00 | 0.01 | 0.00 | 1 | 1012.9 |
| 20260510054554 | 50 | 292 | 0.0 | 0.0 | 0.00 | 0.01 | 0.00 | 1 | 1012.9 |
| 20260510053048 | 50 | 292 | 0.0 | 0.0 | 0.00 | 0.01 | 0.00 | 1 | 1012.8 |
| 20260510051543 | 50 | 292 | 0.0 | 0.0 | 0.00 | 0.01 | 0.00 | 1 | 1012.9 |
| 20260510050044 | 50 | 292 | 0.0 | 0.0 | 0.00 | 0.01 | 0.00 | 1 | 1012.8 |
| 20260510044534 | 51 | 292 | 0.0 | 0.0 | 0.00 | 0.01 | 0.00 | 1 | 1012.8 |
| 20260510043034 | 51 | 292 | 0.0 | 0.0 | 0.00 | 0.01 | 0.00 | 1 | 1012.7 |
| 20260510041526 | 51 | 292 | 0.0 | 0.0 | 0.00 | 0.01 | 0.00 | 1 | 1012.7 |
| 20260510040022 | 51 | 292 | 0.0 | 0.0 | 0.00 | 0.01 | 0.00 | 1 | 1012.7 |
| 20260510034522 | 52 | 292 | 0.0 | 0.0 | 0.00 | 0.01 | 0.01 | 1 | 1012.7 |
| 20260510033014 | 52 | 292 | 0.0 | 0.0 | 0.00 | 0.01 | 0.01 | 1 | 1012.8 |
| 20260510031514 | 53 | 292 | 0.0 | 0.0 | 0.00 | 0.01 | 0.01 | 1 | 1012.7 |
| 20260510030016 | 54 | 292 | 0.0 | 0.0 | 0.00 | 0.01 | 0.01 | 1 | 1012.7 |
| 20260510024504 | 54 | 292 | 0.0 | 0.0 | 0.00 | 0.01 | 0.01 | 1 | 1012.6 |
| 20260510023059 | 55 | 292 | 0.0 | 0.0 | 0.00 | 0.01 | 0.01 | 8 | 1012.5 |
| 20260510021600 | 56 | 292 | 0.0 | 0.0 | 0.00 | 0.01 | 0.01 | 11 | 1012.3 |
| 20260510020051 | 57 | 292 | 0.0 | 0.0 | 0.00 | 0.01 | 0.01 | 18 | 1012.0 |
| 20260510014546 | 58 | 292 | 0.0 | 0.0 | 0.00 | 0.01 | 0.01 | 26 | 1011.7 |
| 20260510013041 | 60 | 292 | 0.0 | 0.0 | 0.00 | 0.01 | 0.01 | 41 | 1011.4 |
| 20260510011545 | 61 | 292 | 0.0 | 0.0 | 0.00 | 0.01 | 0.01 | 52 | 1011.2 |
| 20260510010033 | 63 | 292 | 0.0 | 0.0 | 0.00 | 0.01 | 0.01 | 59 | 1010.9 |
| 20260510004528 | 65 | 292 | 0.0 | 0.0 | 0.00 | 0.01 | 0.01 | 64 | 1010.7 |
| 20260510003035 | 67 | 292 | 0.0 | 0.0 | 0.00 | 0.01 | 0.01 | 66 | 1010.5 |
| 20260510001522 | 69 | 292 | 0.0 | 0.0 | 0.00 | 0.01 | 0.01 | 67 | 1010.4 |
| 20260510000015 | 71 | 292 | 0.0 | 0.0 | 0.00 | 0.01 | 0.01 | 62 | 1010.4 |
| 20260509234518 | 73 | 292 | 0.0 | 0.0 | 0.00 | 0.01 | 0.01 | 55 | 1010.3 |
| 20260509233006 | 74 | 279 | 0.0 | 0.0 | 0.00 | 0.01 | 0.01 | 54 | 1010.4 |
| 20260509231507 | 74 | 279 | 0.0 | 0.0 | 0.00 | 0.01 | 0.01 | 51 | 1010.3 |
| 20260509230100 | 75 | 243 | 0.0 | 0.0 | 0.00 | 0.01 | 0.01 | 50 | 1010.1 |
| 20260509224558 | 75 | 267 | 0.0 | 0.0 | 0.00 | 0.01 | 0.01 | 51 | 1010.0 |
| 20260509223051 | 74 | 275 | 0.0 | 0.0 | 0.00 | 0.01 | 0.01 | 52 | 1010.0 |
| 20260509221544 | 74 | 304 | 0.0 | 0.0 | 0.00 | 0.01 | 0.01 | 51 | 1010.0 |
| 20260509220041 | 74 | 313 | 0.0 | 0.0 | 0.00 | 0.01 | 0.01 | 52 | 1010.0 |
| 20260509214535 | 74 | 320 | 0.0 | 0.0 | 0.00 | 0.01 | 0.01 | 51 | 1009.9 |
| 20260509213031 | 75 | 297 | 0.0 | 0.0 | 0.00 | 0.01 | 0.01 | 52 | 1009.8 |
| 20260509211526 | 75 | 324 | 0.0 | 0.0 | 0.00 | 0.01 | 0.01 | 52 | 1009.9 |
| 20260509210022 | 74 | 286 | 0.0 | 0.0 | 0.00 | 0.01 | 0.01 | 54 | 1010.0 |
| 20260509204520 | 73 | 346 | 0.0 | 0.0 | 0.00 | 0.01 | 0.01 | 55 | 1010.3 |
| 20260509203013 | 73 | 306 | 0.0 | 0.0 | 0.00 | 0.01 | 0.01 | 54 | 1010.3 |
| 20260509201509 | 72 | 34 | 0.0 | 0.0 | 0.00 | 0.01 | 0.01 | 55 | 1010.4 |
| 20260509200006 | 72 | 336 | 0.0 | 0.0 | 0.00 | 0.01 | 0.01 | 55 | 1010.5 |
| 20260509194559 | 72 | 268 | 0.0 | 0.0 | 0.00 | 0.01 | 0.01 | 58 | 1010.6 |
| 20260509193055 | 72 | 355 | 0.0 | 0.0 | 0.00 | 0.01 | 0.01 | 59 | 1010.5 |
| 20260509191551 | 71 | 284 | 0.0 | 0.0 | 0.00 | 0.01 | 0.01 | 60 | 1010.4 |
| 20260509190047 | 69 | 302 | 0.0 | 0.0 | 0.00 | 0.01 | 0.01 | 65 | 1010.6 |
| 20260509184552 | 70 | 317 | 0.0 | 0.0 | 0.00 | 0.01 | 0.01 | 61 | 1010.5 |
| 20260509183038 | 69 | 355 | 0.0 | 0.0 | 0.00 | 0.01 | 0.01 | 66 | 1010.5 |